Weather History for Window Rock, AZ

Change the Weather History Date:

Friday, November 22, 2013

  Actual Average Record
Temperature  
Mean Temperature 36 °F -  
Max Temperature 39 °F 49 °F 66 °F (1954)
Min Temperature 32 °F 22 °F 4 °F (1957)
Degree Days  
Heating Degree Days 30    
Moisture  
Dew Point 34 °F    
Average Humidity 91    
Maximum Humidity 97    
Minimum Humidity 85    
Precipitation  
Precipitation 0.58 in - - ()
Sea Level Pressure  
Sea Level Pressure 30.07 in    
Wind  
Wind Speed 6 mph (ENE)    
Max Wind Speed 17 mph    
Max Gust Speed 26 mph    
Averages and records for this station are not official NWS values.
T = Trace of Precipitation, MM = Missing Value Source: NWS Daily Summary

Daily Weather History Graph

Daily Weather History Graph

Search for Another Location

Airport:

Trip Planner

Search our weather history database for the weather conditions in past years. The results will help you decide how hot, cold, wet, or windy it might be!

Date:

Astronomy

Nov. 22, 2013 Rise Set
Actual Time 6:59 AM MST 5:05 PM MST
Civil Twilight 6:31 AM MST 5:32 PM MST
Nautical Twilight 6:00 AM MST 6:04 PM MST
Astronomical Twilight 5:29 AM MST 6:34 PM MST
Moon 9:37 PM MST (11/22) 10:46 AM MST (11/22)
Length of Visible Light 11h 01m
Length of Day
10h 06m
Waning Gibbous, 77% of the Moon is Illuminated
Nov 22
Waning Gibbous
Nov 25
Last Quarter
Dec 2
New
Dec 9
First Quarter
Dec 17
Full

Hourly Weather History & Observations

Time (MST) Temp. Windchill Dew Point Humidity Pressure Visibility Wind Dir Wind Speed Gust Speed Precip Events Conditions
12:15 AM 39.9 °F 37.8 °F 39.0 °F 97% 30.10 in - Variable 3.5 mph - 0.05 in Rain Light Rain
12:53 AM 39.9 °F 37.8 °F 39.0 °F 97% 29.97 in - Variable 3.5 mph - 0.09 in Rain Light Rain
1:10 AM 39.9 °F 34.5 °F 37.9 °F 93% 30.09 in - SE 8.1 mph - 0.03 in Rain Rain
1:13 AM 39.9 °F 35.1 °F 37.9 °F 93% 30.09 in - SSE 6.9 mph - 0.04 in Rain Rain
1:28 AM 39.9 °F 35.8 °F 37.9 °F 93% 30.09 in - ESE 5.8 mph - 0.07 in Rain Rain
1:36 AM 39.0 °F 34.8 °F 37.9 °F 96% 30.09 in - Variable 5.8 mph - 0.08 in Rain Rain
1:53 AM 39.0 °F - 37.0 °F 93% 29.96 in - Calm Calm - 0.11 in Rain Rain
2:09 AM 39.0 °F 35.7 °F 37.9 °F 96% 30.08 in - East 4.6 mph - 0.03 in Rain Light Rain
2:33 AM 39.0 °F 35.7 °F 37.0 °F 93% 30.08 in - ENE 4.6 mph - 0.08 in Rain Rain
2:41 AM 39.0 °F 35.7 °F 37.0 °F 93% 30.08 in - Variable 4.6 mph - 0.08 in Rain Light Rain
2:53 AM 39.0 °F 34.0 °F 36.0 °F 89% 29.95 in - East 6.9 mph - 0.10 in Rain Light Rain
3:04 AM 39.0 °F 33.4 °F 37.0 °F 93% 30.08 in - ENE 8.1 mph - 0.01 in Rain Light Rain
3:39 AM 39.0 °F 34.0 °F 36.0 °F 89% 30.07 in - NE 6.9 mph - 0.02 in Rain Light Rain
3:53 AM 37.9 °F 30.9 °F 36.0 °F 93% 29.94 in - ENE 10.4 mph - 0.03 in Rain Light Rain
4:00 AM 37.9 °F 32.7 °F 36.0 °F 93% 30.07 in - NE 6.9 mph - 0.00 in Rain Light Rain
4:11 AM 37.9 °F 35.5 °F 36.0 °F 93% 30.07 in - NE 3.5 mph - 0.02 in Rain Light Rain
4:22 AM 37.9 °F - 36.0 °F 93% 30.07 in - Calm Calm - 0.04 in Rain Rain
4:53 AM 37.0 °F 30.4 °F 34.0 °F 89% 29.96 in - ENE 9.2 mph - 0.09 in Rain Light Rain
5:53 AM 36.0 °F 28.0 °F 34.0 °F 93% 29.97 in - ENE 11.5 mph 21.9 mph 0.00 in   Overcast
6:53 AM 37.0 °F 33.3 °F 35.1 °F 93% 29.97 in - Variable 4.6 mph - N/A   Overcast
7:22 AM 37.0 °F 29.3 °F 35.1 °F 93% 30.08 in - East 11.5 mph 17.3 mph N/A   Overcast
7:35 AM 36.0 °F 26.7 °F 34.0 °F 93% 30.08 in - ENE 15.0 mph - N/A   Overcast
7:53 AM 36.0 °F 26.0 °F 34.0 °F 93% 29.99 in - ENE 17.3 mph 26.5 mph N/A   Overcast
8:53 AM 36.0 °F 32.1 °F 35.1 °F 97% 30.04 in - Variable 4.6 mph - N/A   Overcast
9:53 AM 37.0 °F 33.3 °F 35.1 °F 93% 30.05 in - Variable 4.6 mph - 0.00 in Rain Light Rain
10:19 AM 37.0 °F 31.0 °F 34.0 °F 89% 30.14 in - East 8.1 mph - 0.03 in Rain Light Rain
10:53 AM 36.0 °F 28.5 °F 34.0 °F 93% 30.04 in - ENE 10.4 mph - 0.09 in Rain Light Rain
11:26 AM 35.1 °F 31.0 °F 33.1 °F 92% 30.13 in - Variable 4.6 mph - 0.03 in Rain Light Rain
11:53 AM 35.1 °F 30.1 °F 33.1 °F 92% 30.03 in - ENE 5.8 mph - 0.03 in Rain Light Rain
12:53 PM 36.0 °F 31.1 °F 33.1 °F 89% 30.02 in - ENE 5.8 mph - 0.00 in   Overcast
1:53 PM 35.1 °F 27.9 °F 33.1 °F 92% 30.01 in - NE 9.2 mph - 0.00 in Rain Light Rain
2:53 PM 37.0 °F 34.5 °F 34.0 °F 89% 30.01 in - Variable 3.5 mph - 0.00 in   Overcast
3:23 PM 37.0 °F - 33.1 °F 86% 30.10 in - Calm Calm - 0.00 in   Overcast
3:53 PM 36.0 °F 33.3 °F 33.1 °F 89% 30.02 in - Variable 3.5 mph - 0.00 in   Overcast
4:53 PM 35.1 °F 30.1 °F 32.0 °F 89% 30.05 in - Variable 5.8 mph - N/A   Overcast
5:53 PM 34.0 °F 28.0 °F 30.9 °F 89% 30.09 in - Variable 6.9 mph - N/A   Overcast
6:53 PM 34.0 °F 29.8 °F 30.0 °F 85% 30.09 in - Variable 4.6 mph - N/A   Overcast
7:01 PM 33.1 °F 30.0 °F 30.0 °F 89% 30.17 in - Variable 3.5 mph - 0.00 in Rain Light Rain
7:53 PM 32.0 °F 25.6 °F 30.0 °F 92% 30.13 in - ENE 6.9 mph - 0.04 in   Overcast
8:53 PM 32.0 °F 26.4 °F 28.9 °F 88% 30.13 in - Variable 5.8 mph - N/A   Overcast
9:33 PM 33.1 °F 30.0 °F 28.9 °F 85% 30.20 in - ENE 3.5 mph - N/A   Overcast
9:53 PM 32.0 °F 27.5 °F 28.9 °F 88% 30.14 in - Variable 4.6 mph - N/A   Overcast
10:24 PM 32.0 °F 28.7 °F 28.9 °F 88% 30.21 in - Variable 3.5 mph - N/A   Overcast
10:36 PM 32.0 °F 28.7 °F 28.9 °F 88% 30.21 in - NE 3.5 mph - N/A   Overcast
10:53 PM 32.0 °F 24.8 °F 28.0 °F 85% 30.15 in - NE 8.1 mph - N/A   Overcast
11:53 PM 32.0 °F - 28.0 °F 85% 30.14 in - Calm Calm - N/A   Overcast